Flag for Pakistan Weather past 2 weeks in Lahore, Pakistan

Now
97 °F

Scattered clouds.


Feels Like: 96 °F
Forecast: 73 / 98 °F
Wind: 12 mph from East

Location: Lahore Airport

Current Time: Apr 27, 2015 at 4:23:22 PM

Latest Report: Apr 27, 2015 at 3:55 PM


Visibility: 2 mi

Pressure: 29.71 "Hg

Humidity: 28%

Dew point: 59 °F

Location of LahoreLocation

Historic Weather in Lahore — Graph

°F

Lahore temperature yesterday

Maximum temperature yesterday: 97 °F (at 2:25 PM)
Minimum temperature yesterday: 75 °F (at 4:25 AM)
Average temperature yesterday: 87 °F

Past Weeks' High & Low Weather Summary

 TemperatureHumidityPressure
High104 °F (Apr 24, 2:55 PM)88% (Apr 16, 4:01 AM)30.12 "Hg (Apr 16, 4:01 AM)
Low66 °F (Apr 17, 3:55 AM)12% (Apr 21, 3:55 PM)29.56 "Hg (Apr 19, 5:55 PM)
Average85 °F44%29.79 "Hg
* Reported Apr 12 2:25 PM — Apr 27 2:55 PM, Lahore, Weather by CustomWeather, © 2015

Note: Actual official high and low records may vary slightly from our data, if they occured in-between our weather recording intervals... More about our weather records

Advertising

Lahore weather history for previous 24 hours

 ConditionsComfort  
Time TempWeatherWind HumidityBarometerVisibility
2:55 PM
Mon, Apr 27
97 °FHaze.13 mph28%29.71 "Hg2 mi
2:25 PM95 °FHaze.14 mph30%29.71 "Hg2 mi
1:55 PM95 °FHaze.12 mph30%29.74 "Hg2 mi
1:25 PM93 °FHaze.13 mph32%29.74 "Hg2 mi
12:55 PM93 °FHaze.15 mph32%29.74 "Hg2 mi
11:55 AM91 °FHaze.15 mph32%29.77 "Hg2 mi
11:25 AM90 °FHaze.15 mph36%29.77 "Hg2 mi
10:55 AM88 °FHaze.14 mph38%29.77 "Hg2 mi
10:25 AM88 °FHaze.14 mph38%29.80 "Hg2 mi
9:25 AM84 °FHaze.16 mph43%29.80 "Hg3 mi
8:55 AM84 °FClear.16 mph48%29.80 "Hg3 mi
8:25 AM82 °FClear.15 mph51%29.80 "Hg3 mi
7:55 AM81 °FClear.14 mph51%29.80 "Hg3 mi
7:25 AM79 °FClear.15 mph54%29.80 "Hg3 mi
6:55 AM77 °FClear.15 mph57%29.80 "Hg3 mi
6:25 AM75 °FClear.13 mph61%29.80 "Hg3 mi
4:55 AM75 °FPassing clouds.10 mph61%29.74 "Hg2 mi
4:25 AM75 °FPassing clouds.9 mph65%29.74 "Hg2 mi
3:55 AM77 °FPassing clouds.9 mph57%29.74 "Hg2 mi
3:25 AM77 °FPassing clouds.9 mph57%29.74 "Hg2 mi
2:55 AM77 °FPassing clouds.8 mph57%29.74 "Hg2 mi
2:25 AM79 °FPassing clouds.8 mph54%29.74 "Hg2 mi
1:55 AM79 °FPassing clouds.9 mph54%29.74 "Hg2 mi
1:25 AM79 °FPassing clouds.8 mph54%29.74 "Hg2 mi
12:55 AM81 °FPassing clouds.8 mph51%29.74 "Hg2 mi
12:25 AM81 °FPassing clouds.8 mph51%29.77 "Hg2 mi
11:55 PM
Sun, Apr 26
81 °FPassing clouds.9 mph51%29.74 "Hg2 mi
11:25 PM82 °FHaze.10 mph45%29.74 "Hg2 mi
10:55 PM82 °FHaze.10 mph45%29.74 "Hg2 mi
10:25 PM82 °FHaze.9 mph45%29.74 "Hg2 mi
9:55 PM82 °FHaze.9 mph45%29.74 "Hg2 mi
9:25 PM84 °FHaze.8 mph43%29.77 "Hg2 mi
8:55 PM86 °FHaze.8 mph43%29.74 "Hg2 mi
8:30 PM88 °FHaze.7 mph40%29.74 "Hg2 mi
8:00 PM90 °FHaze.7 mph36%29.71 "Hg2 mi
7:25 PM91 °FHaze.7 mph32%29.71 "Hg2 mi
6:55 PM93 °FHaze.6 mph30%29.71 "Hg3 mi
6:25 PM95 °FClear.8 mph28%29.71 "Hg4 mi
5:55 PM95 °FClear.9 mph28%29.71 "Hg4 mi
5:30 PM97 °FClear.8 mph27%29.71 "Hg4 mi
4:55 PM97 °FClear.9 mph27%29.71 "Hg4 mi
4:25 PM97 °FClear.8 mph25%29.71 "Hg4 mi
Weather by CustomWeather, © 2015

See weather overviewHow to use our weather pages